Location: ????????
(54.6123°N, 39.2099°E)
Time: 03:26:17
(UTC+00:00)

ADEOS II - Pass Details

Date: 19 May 2025
Orbit: 793 x 796 km, 98.7° (Epoch: 19 June)

Event Time Altitude Azimuth Distance (km) Brightness Sun altitude
Rises 23:38:22 0° 19° (NNE) 3,311 7.1 -9.7°
Reaches altitude 10° 23:40:50 10° 26° (NNE) 2,376 6.2 -9.5°
Maximum altitude 23:45:50 44° 98° (E) 1,097 3.1 -9.1°
Drops below altitude 10° 23:50:48 10° 170° (S) 2,359 4.1 -8.7°
Enters shadow 23:52:35 - 176° (S) 3,035 4.6 -8.6°
